Weather in Aktay

Russia / Amur Oblast     51°44′22″N   127°14′57″E
temp.,
°C
wind,
m/s
gust,
m/s
humid.,
%
clouds,
%
prec.,
mm/h
press.,
hPa
HPBL,
m
23 april, fri
fri2300:00+5nnw51064100 0.0 1024842
03:00+3nnw51152100 0.0 1026724
06:00+1nnw61145100 0.0 1029724
09:00+3nnw692894 0.0 1030995
12:00+6nnw792092 0.0 10301506
15:00+8nnw681698 0.0 10291885
18:00+7nnw592156 0.0 10302074
21:00+3nnw39340 0.0 1032353
24 april, sat
sat2400:00−1nw27460 0.0 1033156
03:00−2wnw39520 0.0 1032219
06:00−2w3115380 0.0 1031278
09:00+5nw612308 0.0 10291448
12:00+9nw7112291 0.0 10272755
15:00+10nnw71322100 0.0 10243149
18:00+9nw7152719 0.0 10232876
21:00+6nnw715420 0.0 10241578
25 april, sun
sun2500:00+4nnw714504 0.0 10261301
03:00+1n410540 0.0 1027817
06:00−1nw38580 0.0 1028328
09:00+4nnw36270 0.0 10271185
12:00+8nnw46255 0.0 10251766
15:00+12wnw35235 0.0 10202101
18:00+12wnw35245 0.0 10182053
21:00+7ssw11355 0.0 101710
26 april, mon
mon2600:00+5s36415 0.0 101694
03:00+4ssw31248100 0.0 1014295
06:00+5s4134855 0.0 1011351
09:00+12ssw61127100 0.0 1008815
12:00+16ssw7112198 0.0 10041556
15:00+19ssw81220100 0.0 10002143
18:00+16ssw71525100 0.0 9992167
21:00+15s51130100 0.0 997581
27 april, tue
tue2700:00+13sw3947100 0.0 997296
03:00+11w1270100 0.0 99649
06:00+9nne377780 0.0 996257
09:00+10nnw4465100 0.1 996535
12:00+9nw3269100 0.1 997497
15:00+11w2362100 0.2 996832
18:00+9nw4468100 0.3 996646
21:00+6nnw4685100 2.5 997429